Starlink 5853

operational
NORAD ID: 56881 Int'l Des: 2023-083 Owner: SPXS Country: US Constellation: starlink
LEOCIRCULAR

关于 Starlink 5853

正在加载描述...

实时位置

正在加载3D地球...

即将过境

高度历史

Altitude vs Time

uPlot chart will show altitude changes over time

两行轨道根数

1 56881U 23083F 26035.62909924 -.00000258 00000-0 -40341-5 0 9995
2 56881 43.0022 261.7315 0001071 262.1201 97.9520 15.02530036146692
Epoch: Feb 4, 2026 • Age: 11 hours

当前状态

高度 568.8 km
速度 7.58 km/s
星下点 -35.78°S, 43.69°E
发射日期 Jun 12, 2023
运行时间 2.6 years
类型 internet

技术详情

分类 Payload
质量 305.00 kg
干质量 290.00 kg
总质量 305.00 kg
长度 0.20 m
直径 2.80 m
跨度 9.00 m
形状 Box + pan
制造商 SPXS
平台类型 Starlink
阶段状态 In Orbit
所有者/国家 SPXS/US

大型星座

Loading constellations...